2023/10/07 00:00:00, 0.2,10.9
2023/10/07 00:10:00, 0.2,10.6
2023/10/07 00:20:00, 0.2,10.4
2023/10/07 00:30:00, 0.2,10.6
2023/10/07 00:40:00, 0.2,10.3
2023/10/07 00:50:00, 0.2,10.4
2023/10/07 01:00:00, 0.2,10.5
2023/10/07 01:10:00, 0.2,10.2
2023/10/07 01:20:00, 0.2,10.7
2023/10/07 01:30:00, 0.2,10.5
2023/10/07 01:40:00, 0.1,10.2
2023/10/07 01:50:00, 0.2,10.3
2023/10/07 02:00:00, 0.2,10.5
2023/10/07 02:10:00, 0.2,10.4
2023/10/07 02:20:00, 0.2,10.4
2023/10/07 02:30:00, 0.2,10.3
2023/10/07 02:40:00, 0.2,10.1
2023/10/07 02:50:00, 0.2,10.3
2023/10/07 03:00:00, 0.3,10.4
2023/10/07 03:10:00, 0.3,10.3
2023/10/07 03:20:00, 0.3,10.4
2023/10/07 03:30:00, 0.2,10.6
2023/10/07 03:40:00, 0.2,10.6
2023/10/07 03:50:00, 0.2,10.5
2023/10/07 04:00:00, 0.2,10.6
2023/10/07 04:10:00, 0.2,10.2
2023/10/07 04:20:00, 0.2,10.6
2023/10/07 04:30:00, 0.2,10.8
2023/10/07 04:40:00, 0.2,10.2
2023/10/07 04:50:00, 0.2,10.6
2023/10/07 05:00:00, 0.2,10.5
2023/10/07 05:10:00, 0.2,11.0
2023/10/07 05:20:00, 0.2,10.8
2023/10/07 05:30:00, 0.3,10.8
2023/10/07 05:40:00, 0.2,10.9
2023/10/07 05:50:00, 0.3,10.6
2023/10/07 06:00:00, 0.3,10.8
2023/10/07 06:10:00, 0.2,11.2
2023/10/07 06:20:00, 0.2,11.3
2023/10/07 06:30:00, 0.2,11.4
2023/10/07 06:40:00, 0.2,11.4
2023/10/07 06:50:00, 0.2,11.8
2023/10/07 07:00:00, 0.2,11.7
2023/10/07 07:10:00, 0.3,12.0
2023/10/07 07:20:00, 0.3,12.3
2023/10/07 07:30:00, 0.3,12.5
2023/10/07 07:40:00, 0.2,12.4
2023/10/07 07:50:00, 0.3,12.6
2023/10/07 08:00:00, 0.3,13.0
2023/10/07 08:10:00, 0.3,12.9
2023/10/07 08:20:00, 0.3,13.1
2023/10/07 08:30:00, 0.3,13.8
2023/10/07 08:40:00, 0.3,14.2
2023/10/07 08:50:00, 0.3,16.5
2023/10/07 09:00:00, 0.2,16.6
2023/10/07 09:10:00, 0.2,17.3
2023/10/07 09:20:00, 0.1,18.0
2023/10/07 09:30:00, 0.2,24.0
2023/10/07 09:40:00, 0.0,21.1
2023/10/07 09:50:00, 0.0,20.8
2023/10/07 10:00:00, 0.0,18.6
2023/10/07 10:10:00, 0.0,18.2
2023/10/07 10:20:00, 0.2,19.9
2023/10/07 10:30:00, 0.5,22.7
2023/10/07 10:40:00, 0.5,21.5
2023/10/07 10:50:00, 0.2,20.6
2023/10/07 11:00:00, 0.1,19.3
2023/10/07 11:10:00, 0.2,20.5
2023/10/07 11:20:00, 0.1,20.5
2023/10/07 11:30:00, 0.0,18.8
2023/10/07 11:40:00, 0.6,20.5
2023/10/07 11:50:00, 0.8,21.9
2023/10/07 12:00:00, 0.2,20.5
2023/10/07 12:10:00, 0.8,22.2
2023/10/07 12:20:00, 0.5,19.6
2023/10/07 12:30:00, 1.0,21.2
2023/10/07 12:40:00, 0.4,20.5
2023/10/07 12:50:00, 0.9,21.9
2023/10/07 13:00:00, 0.6,21.7
2023/10/07 13:10:00, 0.1,20.8
2023/10/07 13:20:00, 0.1,19.7
2023/10/07 13:30:00, 0.3,20.1
2023/10/07 13:40:00, 0.5,20.2
2023/10/07 13:50:00, 0.1,19.5
2023/10/07 14:00:00, 0.1,19.3
2023/10/07 14:10:00, 0.2,18.3
2023/10/07 14:20:00, 0.4,19.1
2023/10/07 14:30:00, 0.2,18.7
2023/10/07 14:40:00, 0.3,19.0
2023/10/07 14:50:00, 0.2,17.8
2023/10/07 15:00:00, 0.4,18.9
2023/10/07 15:10:00, 0.4,19.2
2023/10/07 15:20:00, 0.1,17.8
2023/10/07 15:30:00, 0.2,17.5
2023/10/07 15:40:00, 0.2,17.4
2023/10/07 15:50:00, 0.2,16.8
2023/10/07 16:00:00, 0.2,16.4
2023/10/07 16:10:00, 0.3,16.7
2023/10/07 16:20:00, 0.3,16.8
2023/10/07 16:30:00, 0.3,15.9
2023/10/07 16:40:00, 0.2,16.0
2023/10/07 16:50:00, 0.2,15.7
2023/10/07 17:00:00, 0.2,15.3
2023/10/07 17:10:00, 0.2,15.6
2023/10/07 17:20:00, 0.2,14.8
2023/10/07 17:30:00, 0.1,14.4
2023/10/07 17:40:00, 0.1,13.8
2023/10/07 17:50:00, 0.1,13.7
2023/10/07 18:00:00, 0.2,13.4
2023/10/07 18:10:00, 0.1,13.4
2023/10/07 18:20:00, 0.1,13.2
2023/10/07 18:30:00, 0.1,13.2
2023/10/07 18:40:00, 0.1,13.2
2023/10/07 18:50:00, 0.1,13.1
2023/10/07 19:00:00, 0.1,12.8
2023/10/07 19:10:00, 0.1,12.8
2023/10/07 19:20:00, 0.1,12.4
2023/10/07 19:30:00, 0.1,12.8
2023/10/07 19:40:00, 0.1,12.9
2023/10/07 19:50:00, 0.1,12.5
2023/10/07 20:00:00, 0.1,12.6
2023/10/07 20:10:00, 0.1,12.2
2023/10/07 20:20:00, 0.1,12.0
2023/10/07 20:30:00, 0.1,12.0
2023/10/07 20:40:00, 0.1,11.9
2023/10/07 20:50:00, 0.1,11.9
2023/10/07 21:00:00, 0.1,11.9
2023/10/07 21:10:00, 0.1,11.5
2023/10/07 21:20:00, 0.1,11.7
2023/10/07 21:30:00, 0.1,11.7
2023/10/07 21:40:00, 0.1,11.8
2023/10/07 21:50:00, 0.1,11.6
2023/10/07 22:00:00, 0.1,11.0
2023/10/07 22:10:00, 0.1,11.5
2023/10/07 22:20:00, 0.1,11.5
2023/10/07 22:30:00, 0.1,11.4
2023/10/07 22:40:00, 0.1,11.4
2023/10/07 22:50:00, 0.2,11.4
2023/10/07 23:00:00, 0.1,11.5
2023/10/07 23:10:00, 0.1,11.6
2023/10/07 23:20:00, 0.1,11.5
2023/10/07 23:30:00, 0.1,11.3
2023/10/07 23:40:00, 0.1,11.3
2023/10/07 23:50:00, 0.2,11.3
